TISTTNCM

Guest
Details From TIST - St Thomas - Cyril E King
To TNCM - St Maarten - Princess Juliana Intl
Flight Number -
Tags generated
Created
Modified
Stats Distance 108 nm / 200 km
Max Altitude 0 ft / 0 m
Waypoints 2
Social Downloads 5
Likes 0
Share VATSIM

Download

Looking for another format? Having issues loading an existing format? Contact us
Advertisement - Login to hide

Notes

Basic altitude profile: - Ascent Rate: 2000ft/min - Ascent Speed: 250kts - Cruise Altitude: 300ft - Cruise Speed: 420kts - Descent Rate: 1500ft/min - Descent Speed: 250kts Options: - Use NATs: yes - Use PACOTS: yes - Use low airways: no - Use high airways: no

Route

TIST TNCM

ID Type Via Altitude Latitude Longitude Leg Dist Tot Dist Heading (true) Name
O TIST APT - 0 ft / 0 m 18.33730˚ -64.97334˚ - 0 nm - St Thomas - Cyril E King
O TNCM APT - 0 ft / 0 m 18.04089˚ -63.10897˚ 107 nm 107 nm 99° / 100° St Maarten - Princess Juliana Intl

Altitude Profile

Advertisement - Login to hide

TIST

Details ICAO TIST (STT)
Name St Thomas - Cyril E King
Region USA (U.S. Virgin Islands)
Timezone Unknown (UTC+0.0)
Stats Elevation 23 ft / 7 m (AMSL)
Location 18.337300° -64.973344°
Runways 1
Magnetic Variation 13.653° W

METAR

TIST 271153Z AUTO 09009KT 10SM FEW045 A3003

Decode

TAF

TAF TIST 271143Z 2712/2812 09007KT P6SM VCSH FEW025 FM271330 13012KT P6SM VCSH SCT030 FM272300 09010KT P6SM VCSH SCT025 SCT050

Decode

Departure Runways

ID Width Length Bearing (true) Bearing (mag) Surface Threshold Offset Overrun Length
10 151 ft / 46 m 6,992 ft / 2,131 m 87.44° 101.09° Asphalt 0 ft / 0 m 200 ft / 61 m
28 151 ft / 46 m 6,992 ft / 2,131 m 267.44° 281.09° Asphalt 2,300 ft / 701 m 200 ft / 61 m

TNCM

Details ICAO TNCM (SXM)
Name St Maarten - Princess Juliana Intl
Region Caribbean Netherlands, Aruba, Curaçao, Sint Maarten
Timezone Unknown (UTC+0.0)
Stats Elevation 12 ft / 4 m (AMSL)
Location 18.040889° -63.108974°
Runways 1
Magnetic Variation 14.337° W

METAR

TNCM 271200Z 08008KT 060V120 9999 SCT008 27/24 Q1017 NOSIG RMK A3004

Decode

TAF

TAF TNCM 271143Z 2712/2812 09008KT P6SM VCTS SCT018CB BKN040 FM271500 12013KT P6SM VCTS SCT018CB BKN030 FM272200 09010KT P6SM VCSH SCT018 SCT040

Decode

Destination Runways

ID Width Length Bearing (true) Bearing (mag) Surface Threshold Offset Overrun Length
10 148 ft / 45 m 7,464 ft / 2,275 m 81.43° 95.77° Asphalt 0 ft / 0 m 151 ft / 46 m
28 148 ft / 45 m 7,464 ft / 2,275 m 261.44° 275.78° Asphalt 397 ft / 121 m 0 ft / 0 m

Popular Alternatives